User: anonymous   Login
Location: Stigler
(35.2540°N, 95.1230°W)
Time: 03:57:08
(UTC-06:00)
Language:

Cosmos 1805 - Orbit

View from above orbital plane
View from above orbital plane
View from above satellite
View from above satellite

Ground track
Ground track

The orbit data is extracted from the following two-line orbital elements,

1 17191U 86097A   16345.11678938  .00001133  00000-0  65155-4 0  9995
2 17191  82.4761 215.6434 0005246  21.4570 338.6879 15.11528227635080
Epoch (UTC): 10 December 2016 02:48:10
Eccentricity: 0.0005246
inclination: 82.4761°
perigee height: 528 km
apogee height: 535 km
right ascension of ascending node: 215.6434°
argument of perigee: 21.4570°
revolutions per day: 15.11528227
mean anomaly at epoch: 338.6879°
orbit number at epoch: 63508

The dashed part of the orbit path shows where the satellite is in the earth's shadow,  

DLR